Saint Bonnet de Bellac- Haute Vienne - France
Donnes mto: lundi, 20/02/2012
Date Horaire Temp. E. Hum. E. P.atmo. Pluie Vent Direction Direction Ensoleilleme Solaire P. de rose Temp au vent Rafales
20/02/2012 00:00 -1,8 C 84 % 1029,3 hPa 0,0 mm 0,0 km/h (0 Bft) NE 45 0 min 0 W/m -4,1 C -1,8 C 0,0 km/h (0 Bft)
20/02/2012 00:10 -1,9 C 84 % 1029,3 hPa 0,0 mm 0,0 km/h (0 Bft) NE 45 0 min 0 W/m -4,2 C -1,9 C 0,0 km/h (0 Bft)
20/02/2012 00:20 -2,0 C 84 % 1029,4 hPa 0,0 mm 0,0 km/h (0 Bft) NE 45 0 min 0 W/m -4,3 C -2,0 C 0,0 km/h (0 Bft)
20/02/2012 00:30 -2,2 C 84 % 1029,4 hPa 0,0 mm 0,0 km/h (0 Bft) NE 45 0 min 0 W/m -4,5 C -2,2 C 0,0 km/h (0 Bft)
20/02/2012 00:40 -2,2 C 84 % 1029,5 hPa 0,0 mm 0,0 km/h (0 Bft) NE 45 0 min 0 W/m -4,5 C -2,2 C 0,0 km/h (0 Bft)
20/02/2012 00:50 -2,2 C 84 % 1029,6 hPa 0,0 mm 0,0 km/h (0 Bft) N-NE 22 0 min 0 W/m -4,5 C -2,2 C 0,0 km/h (0 Bft)
20/02/2012 01:00 -2,1 C 85 % 1029,7 hPa 0,0 mm 0,0 km/h (0 Bft) N-NE 22 0 min 0 W/m -4,3 C -2,1 C 0,0 km/h (0 Bft)
20/02/2012 01:10 -2,0 C 85 % 1029,8 hPa 0,0 mm 0,4 km/h (0 Bft) N-NE 22 0 min 0 W/m -4,2 C -2,0 C 3,6 km/h (1 Bft)
20/02/2012 01:20 -1,9 C 85 % 1029,8 hPa 0,0 mm 0,4 km/h (0 Bft) N-NE 22 0 min 0 W/m -4,1 C -1,9 C 3,6 km/h (1 Bft)
20/02/2012 01:30 -1,9 C 85 % 1029,8 hPa 0,0 mm 0,0 km/h (0 Bft) N-NE 22 0 min 0 W/m -4,1 C -1,9 C 0,0 km/h (0 Bft)
20/02/2012 01:40 -2,1 C 85 % 1029,9 hPa 0,0 mm 0,0 km/h (0 Bft) N-NE 22 0 min 0 W/m -4,3 C -2,1 C 0,0 km/h (0 Bft)
20/02/2012 01:50 -2,2 C 85 % 1029,9 hPa 0,0 mm 0,0 km/h (0 Bft) N-NE 22 0 min 0 W/m -4,4 C -2,2 C 0,0 km/h (0 Bft)
20/02/2012 02:02 -2,5 C 85 % 1029,9 hPa 0,0 mm 0,0 km/h (0 Bft) N-NE 22 0 min 0 W/m -4,7 C -2,5 C 0,0 km/h (0 Bft)
20/02/2012 02:10 -2,7 C 86 % 1030,0 hPa 0,0 mm 0,0 km/h (0 Bft) N-NE 22 0 min 0 W/m -4,7 C -2,7 C 0,0 km/h (0 Bft)
20/02/2012 02:20 -2,8 C 86 % 1030,0 hPa 0,0 mm 0,0 km/h (0 Bft) N-NE 22 0 min 0 W/m -4,8 C -2,8 C 0,0 km/h (0 Bft)
20/02/2012 02:30 -2,9 C 86 % 1030,0 hPa 0,0 mm 0,0 km/h (0 Bft) N-NE 22 0 min 0 W/m -4,9 C -2,9 C 0,0 km/h (0 Bft)
20/02/2012 02:40 -3,1 C 86 % 1030,0 hPa 0,0 mm 0,0 km/h (0 Bft) N-NE 22 0 min 0 W/m -5,1 C -3,1 C 0,0 km/h (0 Bft)
20/02/2012 02:50 -3,2 C 87 % 1030,0 hPa 0,0 mm 0,0 km/h (0 Bft) N-NE 22 0 min 0 W/m -5,0 C -3,2 C 0,0 km/h (0 Bft)
20/02/2012 03:00 -3,4 C 87 % 1030,1 hPa 0,0 mm 0,0 km/h (0 Bft) N-NE 22 0 min 0 W/m -5,2 C -3,4 C 0,0 km/h (0 Bft)
20/02/2012 03:10 -3,5 C 87 % 1030,0 hPa 0,0 mm 0,0 km/h (0 Bft) N-NE 22 0 min 0 W/m -5,3 C -3,5 C 0,0 km/h (0 Bft)
20/02/2012 03:20 -3,5 C 87 % 1030,0 hPa 0,0 mm 0,0 km/h (0 Bft) N 360 0 min 0 W/m -5,3 C -3,5 C 0,0 km/h (0 Bft)
20/02/2012 03:30 -3,4 C 87 % 1030,0 hPa 0,0 mm 0,0 km/h (0 Bft) NE 45 0 min 0 W/m -5,2 C -3,4 C 0,0 km/h (0 Bft)
20/02/2012 03:40 -3,2 C 88 % 1030,1 hPa 0,0 mm 0,0 km/h (0 Bft) N-NE 22 0 min 0 W/m -4,9 C -3,2 C 0,0 km/h (0 Bft)
20/02/2012 03:50 -3,2 C 87 % 1030,1 hPa 0,0 mm 0,0 km/h (0 Bft) N-NE 22 0 min 0 W/m -5,0 C -3,2 C 0,0 km/h (0 Bft)
20/02/2012 04:00 -3,2 C 87 % 1030,1 hPa 0,0 mm 0,0 km/h (0 Bft) NO 315 0 min 0 W/m -5,0 C -3,2 C 0,0 km/h (0 Bft)
20/02/2012 04:10 -3,3 C 88 % 1030,1 hPa 0,0 mm 0,0 km/h (0 Bft) N-NE 22 0 min 0 W/m -5,0 C -3,3 C 0,0 km/h (0 Bft)
20/02/2012 04:20 -3,4 C 88 % 1030,1 hPa 0,0 mm 0,0 km/h (0 Bft) N 360 0 min 0 W/m -5,1 C -3,4 C 0,0 km/h (0 Bft)
20/02/2012 04:30 -3,5 C 88 % 1030,1 hPa 0,0 mm 0,0 km/h (0 Bft) N 360 0 min 0 W/m -5,2 C -3,5 C 0,0 km/h (0 Bft)
20/02/2012 04:40 -3,5 C 88 % 1030,1 hPa 0,0 mm 0,0 km/h (0 Bft) N 360 0 min 0 W/m -5,2 C -3,5 C 0,0 km/h (0 Bft)
20/02/2012 04:50 -3,7 C 88 % 1030,1 hPa 0,0 mm 0,0 km/h (0 Bft) N 360 0 min 0 W/m -5,4 C -3,7 C 0,0 km/h (0 Bft)
20/02/2012 05:00 -3,7 C 88 % 1030,1 hPa 0,0 mm 0,0 km/h (0 Bft) N 360 0 min 0 W/m -5,4 C -3,7 C 0,0 km/h (0 Bft)
20/02/2012 05:10 -3,9 C 88 % 1030,2 hPa 0,0 mm 0,0 km/h (0 Bft) N 360 0 min 0 W/m -5,6 C -3,9 C 0,0 km/h (0 Bft)
20/02/2012 05:20 -4,1 C 88 % 1030,1 hPa 0,0 mm 0,0 km/h (0 Bft) N 360 0 min 0 W/m -5,8 C -4,1 C 0,0 km/h (0 Bft)
20/02/2012 05:30 -4,2 C 88 % 1030,2 hPa 0,0 mm 0,0 km/h (0 Bft) N 360 0 min 0 W/m -5,9 C -4,2 C 0,0 km/h (0 Bft)
20/02/2012 05:40 -4,2 C 89 % 1030,2 hPa 0,0 mm 0,0 km/h (0 Bft) N 360 0 min 0 W/m -5,7 C -4,2 C 0,0 km/h (0 Bft)
20/02/2012 05:50 -4,4 C 89 % 1030,3 hPa 0,0 mm 0,0 km/h (0 Bft) NO 315 0 min 0 W/m -5,9 C -4,4 C 0,0 km/h (0 Bft)
20/02/2012 06:00 -4,6 C 89 % 1030,3 hPa 0,0 mm 0,0 km/h (0 Bft) N-NO 337 0 min 0 W/m -6,1 C -4,6 C 0,0 km/h (0 Bft)
20/02/2012 06:10 -4,6 C 89 % 1030,6 hPa 0,0 mm 0,0 km/h (0 Bft) N-NE 22 0 min 0 W/m -6,1 C -4,6 C 0,0 km/h (0 Bft)
20/02/2012 06:20 -4,7 C 89 % 1030,7 hPa 0,0 mm 0,0 km/h (0 Bft) N-NE 22 0 min 0 W/m -6,2 C -4,7 C 0,0 km/h (0 Bft)
20/02/2012 06:30 -4,8 C 89 % 1030,6 hPa 0,0 mm 0,0 km/h (0 Bft) N-NE 22 0 min 0 W/m -6,3 C -4,8 C 0,0 km/h (0 Bft)
20/02/2012 06:40 -4,9 C 89 % 1030,7 hPa 0,0 mm 0,0 km/h (0 Bft) N-NE 22 0 min 0 W/m -6,4 C -4,9 C 0,0 km/h (0 Bft)
20/02/2012 06:50 -5,0 C 89 % 1030,7 hPa 0,0 mm 0,0 km/h (0 Bft) N-NE 22 0 min 0 W/m -6,5 C -5,0 C 0,0 km/h (0 Bft)
20/02/2012 07:00 -5,1 C 89 % 1030,7 hPa 0,0 mm 0,0 km/h (0 Bft) N-NE 22 0 min 0 W/m -6,6 C -5,1 C 0,0 km/h (0 Bft)
20/02/2012 07:10 -5,1 C 89 % 1030,7 hPa 0,0 mm 0,0 km/h (0 Bft) N 360 0 min 0 W/m -6,6 C -5,1 C 0,0 km/h (0 Bft)
20/02/2012 07:20 -5,2 C 89 % 1030,7 hPa 0,0 mm 0,0 km/h (0 Bft) N 360 0 min 0 W/m -6,7 C -5,2 C 0,0 km/h (0 Bft)
20/02/2012 07:30 -5,2 C 89 % 1030,8 hPa 0,0 mm 0,0 km/h (0 Bft) N 360 0 min 0 W/m -6,7 C -5,2 C 0,0 km/h (0 Bft)
20/02/2012 07:40 -5,2 C 89 % 1030,7 hPa 0,0 mm 0,0 km/h (0 Bft) N 360 0 min 0 W/m -6,7 C -5,2 C 0,0 km/h (0 Bft)
20/02/2012 07:50 -5,2 C 89 % 1030,9 hPa 0,0 mm 0,0 km/h (0 Bft) N 360 0 min 0 W/m -6,7 C -5,2 C 0,0 km/h (0 Bft)
20/02/2012 08:00 -5,4 C 89 % 1031,0 hPa 0,0 mm 0,0 km/h (0 Bft) N 360 0 min 0 W/m -6,9 C -5,4 C 0,0 km/h (0 Bft)
20/02/2012 08:10 -5,5 C 89 % 1031,1 hPa 0,0 mm 0,0 km/h (0 Bft) N 360 2 min 0 W/m -7,0 C -5,5 C 0,0 km/h (0 Bft)
20/02/2012 08:20 -5,6 C 90 % 1031,3 hPa 0,0 mm 0,0 km/h (0 Bft) N 360 2 min 0 W/m -7,0 C -5,6 C 0,0 km/h (0 Bft)
20/02/2012 08:30 -5,5 C 90 % 1031,4 hPa 0,0 mm 0,0 km/h (0 Bft) N 360 2 min 0 W/m -6,9 C -5,5 C 0,0 km/h (0 Bft)
20/02/2012 08:40 -5,2 C 90 % 1031,5 hPa 0,0 mm 0,0 km/h (0 Bft) N-NE 22 2 min 0 W/m -6,6 C -5,2 C 0,0 km/h (0 Bft)
20/02/2012 08:50 -4,4 C 90 % 1031,5 hPa 0,0 mm 0,0 km/h (0 Bft) N-NE 22 2 min 0 W/m -5,8 C -4,4 C 0,0 km/h (0 Bft)
20/02/2012 09:00 -3,4 C 91 % 1031,6 hPa 0,0 mm 0,0 km/h (0 Bft) N-NE 22 2 min 0 W/m -4,7 C -3,4 C 0,0 km/h (0 Bft)
20/02/2012 09:10 -2,5 C 91 % 1031,7 hPa 0,0 mm 0,0 km/h (0 Bft) N-NE 22 2 min 0 W/m -3,8 C -2,5 C 0,0 km/h (0 Bft)
20/02/2012 09:20 -1,6 C 92 % 1031,9 hPa 0,0 mm 0,0 km/h (0 Bft) N-NE 22 2 min 0 W/m -2,7 C -1,6 C 0,0 km/h (0 Bft)
20/02/2012 09:30 -0,9 C 91 % 1032,0 hPa 0,0 mm 0,0 km/h (0 Bft) N-NE 22 2 min 0 W/m -2,2 C -0,9 C 0,0 km/h (0 Bft)
20/02/2012 09:40 -0,2 C 90 % 1032,2 hPa 0,0 mm 0,0 km/h (0 Bft) N-NE 22 2 min 0 W/m -1,6 C -0,2 C 0,0 km/h (0 Bft)
20/02/2012 09:50 0,8 C 89 % 1032,2 hPa 0,0 mm 0,4 km/h (0 Bft) N-NE 22 2 min 0 W/m -0,8 C 0,8 C 0,4 km/h (0 Bft)
20/02/2012 10:00 1,5 C 88 % 1032,4 hPa 0,0 mm 0,0 km/h (0 Bft) N-NE 22 2 min 0 W/m -0,3 C 1,5 C 0,0 km/h (0 Bft)
20/02/2012 10:10 2,2 C 85 % 1032,3 hPa 0,0 mm 0,0 km/h (0 Bft) N-NE 22 2 min 0 W/m -0,1 C 2,2 C 0,0 km/h (0 Bft)
20/02/2012 10:20 2,8 C 84 % 1032,4 hPa 0,0 mm 0,7 km/h (0 Bft) NE 45 2 min 0 W/m 0,4 C 2,8 C 3,2 km/h (1 Bft)
20/02/2012 10:30 3,3 C 82 % 1032,5 hPa 0,0 mm 2,5 km/h (1 Bft) N-NE 22 2 min 0 W/m 0,5 C 3,3 C 3,6 km/h (1 Bft)
20/02/2012 10:40 3,7 C 81 % 1032,4 hPa 0,0 mm 3,6 km/h (1 Bft) N-NE 22 2 min 0 W/m 0,7 C 3,7 C 8,3 km/h (2 Bft)
20/02/2012 10:50 3,9 C 78 % 1032,5 hPa 0,0 mm 3,2 km/h (1 Bft) N 360 2 min 0 W/m 0,4 C 3,9 C 6,1 km/h (2 Bft)
20/02/2012 11:00 4,4 C 77 % 1032,4 hPa 0,0 mm 2,5 km/h (1 Bft) N-NE 22 2 min 0 W/m 0,7 C 4,4 C 5,8 km/h (2 Bft)
20/02/2012 11:10 4,8 C 74 % 1032,6 hPa 0,0 mm 3,2 km/h (1 Bft) N 360 2 min 0 W/m 0,6 C 4,8 C 7,6 km/h (2 Bft)
20/02/2012 11:20 5,1 C 73 % 1032,6 hPa 0,0 mm 4,0 km/h (1 Bft) E-NE 67 2 min 0 W/m 0,7 C 5,1 C 4,0 km/h (1 Bft)
20/02/2012 11:30 5,4 C 70 % 1032,6 hPa 0,0 mm 9,7 km/h (2 Bft) NE 45 2 min 0 W/m 0,4 C 3,2 C 12,2 km/h (2 Bft)
20/02/2012 11:40 5,5 C 65 % 1032,6 hPa 0,0 mm 5,4 km/h (2 Bft) NE 45 2 min 0 W/m -0,5 C 4,5 C 7,2 km/h (2 Bft)
20/02/2012 11:50 5,8 C 64 % 1033,0 hPa 0,0 mm 5,8 km/h (2 Bft) N-NE 22 2 min 0 W/m -0,5 C 4,7 C 9,0 km/h (2 Bft)
20/02/2012 12:00 6,1 C 62 % 1032,9 hPa 0,0 mm 7,9 km/h (2 Bft) N 360 2 min 0 W/m -0,6 C 4,5 C 11,2 km/h (2 Bft)
20/02/2012 12:10 6,2 C 58 % 1032,5 hPa 0,0 mm 14,0 km/h (3 Bft) NE 45 2 min 0 W/m -1,4 C 3,4 C 15,1 km/h (3 Bft)
20/02/2012 12:20 6,1 C 57 % 1032,6 hPa 0,0 mm 11,9 km/h (2 Bft) NE 45 2 min 0 W/m -1,8 C 3,6 C 18,0 km/h (3 Bft)
20/02/2012 12:30 6,3 C 57 % 1032,7 hPa 0,0 mm 9,7 km/h (2 Bft) N 360 2 min 0 W/m -1,6 C 4,3 C 9,7 km/h (2 Bft)
20/02/2012 12:40 6,4 C 55 % 1032,6 hPa 0,0 mm 9,4 km/h (2 Bft) NE 45 2 min 0 W/m -2,0 C 4,5 C 12,2 km/h (2 Bft)
20/02/2012 12:50 6,6 C 55 % 1032,5 hPa 0,0 mm 10,8 km/h (2 Bft) N-NE 22 2 min 0 W/m -1,8 C 4,4 C 12,6 km/h (3 Bft)
20/02/2012 13:00 6,6 C 53 % 1032,5 hPa 0,0 mm 10,4 km/h (2 Bft) N-NE 22 2 min 0 W/m -2,3 C 4,5 C 15,1 km/h (3 Bft)
20/02/2012 13:10 6,3 C 52 % 1032,4 hPa 0,0 mm 10,8 km/h (2 Bft) N-NE 22 2 min 0 W/m -2,8 C 4,1 C 12,2 km/h (2 Bft)
20/02/2012 13:20 6,2 C 52 % 1032,5 hPa 0,0 mm 10,8 km/h (2 Bft) NE 45 2 min 0 W/m -2,9 C 3,9 C 10,8 km/h (2 Bft)
20/02/2012 13:30 6,1 C 52 % 1032,4 hPa 0,0 mm 7,9 km/h (2 Bft) N-NE 22 2 min 0 W/m -3,0 C 4,5 C 8,3 km/h (2 Bft)
20/02/2012 13:40 6,1 C 52 % 1032,3 hPa 0,0 mm 10,8 km/h (2 Bft) E-NE 67 2 min 0 W/m -3,0 C 3,8 C 15,1 km/h (3 Bft)
20/02/2012 13:50 6,2 C 52 % 1032,2 hPa 0,0 mm 6,8 km/h (2 Bft) N-NE 22 2 min 0 W/m -2,9 C 4,9 C 11,5 km/h (2 Bft)
20/02/2012 14:00 6,1 C 52 % 1032,2 hPa 0,0 mm 8,6 km/h (2 Bft) NE 45 2 min 0 W/m -3,0 C 4,3 C 8,6 km/h (2 Bft)
20/02/2012 14:10 6,2 C 52 % 1032,2 hPa 0,0 mm 3,6 km/h (1 Bft) E-SE 112 2 min 0 W/m -2,9 C 6,2 C 6,8 km/h (2 Bft)
20/02/2012 14:20 6,4 C 52 % 1032,2 hPa 0,0 mm 7,9 km/h (2 Bft) N-NE 22 2 min 0 W/m -2,7 C 4,8 C 14,0 km/h (3 Bft)
20/02/2012 14:30 6,2 C 52 % 1031,9 hPa 0,0 mm 9,4 km/h (2 Bft) E-NE 67 2 min 0 W/m -2,9 C 4,2 C 14,4 km/h (3 Bft)
20/02/2012 14:40 6,1 C 52 % 1031,8 hPa 0,0 mm 1,8 km/h (1 Bft) NE 45 2 min 0 W/m -3,0 C 6,1 C 2,9 km/h (1 Bft)
20/02/2012 14:50 6,2 C 52 % 1031,4 hPa 0,0 mm 15,5 km/h (3 Bft) N 360 2 min 0 W/m -2,9 C 3,2 C 15,5 km/h (3 Bft)
20/02/2012 15:00 6,1 C 52 % 1031,3 hPa 0,0 mm 7,6 km/h (2 Bft) N-NE 22 2 min 0 W/m -3,0 C 4,5 C 7,6 km/h (2 Bft)
20/02/2012 15:10 5,9 C 52 % 1031,2 hPa 0,0 mm 9,0 km/h (2 Bft) N-NE 22 2 min 0 W/m -3,2 C 4,0 C 13,3 km/h (3 Bft)
20/02/2012 15:20 5,8 C 52 % 1031,1 hPa 0,0 mm 6,5 km/h (2 Bft) N-NE 22 2 min 0 W/m -3,3 C 4,5 C 9,4 km/h (2 Bft)
20/02/2012 15:30 5,8 C 54 % 1031,1 hPa 0,0 mm 8,3 km/h (2 Bft) NE 45 2 min 0 W/m -2,8 C 4,0 C 8,6 km/h (2 Bft)
20/02/2012 15:40 5,8 C 54 % 1031,0 hPa 0,0 mm 2,9 km/h (1 Bft) NE 45 2 min 0 W/m -2,8 C 5,8 C 4,3 km/h (1 Bft)
20/02/2012 15:50 5,7 C 53 % 1030,9 hPa 0,0 mm 8,3 km/h (2 Bft) N 360 2 min 0 W/m -3,1 C 3,9 C 11,2 km/h (2 Bft)
20/02/2012 16:00 5,6 C 54 % 1030,8 hPa 0,0 mm 3,6 km/h (1 Bft) E-NE 67 2 min 0 W/m -3,0 C 5,6 C 4,3 km/h (1 Bft)
20/02/2012 16:10 5,5 C 53 % 1030,8 hPa 0,0 mm 2,5 km/h (1 Bft) N 360 2 min 0 W/m -3,3 C 5,5 C 4,3 km/h (1 Bft)
20/02/2012 16:20 5,5 C 53 % 1030,6 hPa 0,0 mm 8,3 km/h (2 Bft) NE 45 2 min 0 W/m -3,3 C 3,6 C 8,3 km/h (2 Bft)
20/02/2012 16:30 5,3 C 52 % 1030,6 hPa 0,0 mm 8,6 km/h (2 Bft) NE 45 2 min 0 W/m -3,7 C 3,3 C 11,2 km/h (2 Bft)
20/02/2012 16:40 5,1 C 53 % 1030,6 hPa 0,0 mm 3,6 km/h (1 Bft) NE 45 2 min 0 W/m -3,7 C 5,1 C 8,6 km/h (2 Bft)
20/02/2012 16:50 5,1 C 52 % 1030,5 hPa 0,0 mm 5,4 km/h (2 Bft) E-NE 67 2 min 0 W/m -3,9 C 4,0 C 13,3 km/h (3 Bft)
20/02/2012 17:00 5,0 C 53 % 1030,5 hPa 0,0 mm 3,2 km/h (1 Bft) N-NE 22 2 min 0 W/m -3,8 C 5,0 C 6,8 km/h (2 Bft)
20/02/2012 17:10 4,9 C 53 % 1030,5 hPa 0,0 mm 3,6 km/h (1 Bft) N-NE 22 2 min 0 W/m -3,9 C 4,9 C 5,8 km/h (2 Bft)
20/02/2012 17:20 4,8 C 54 % 1030,6 hPa 0,0 mm 8,3 km/h (2 Bft) N-NE 22 2 min 0 W/m -3,7 C 2,8 C 15,1 km/h (3 Bft)
20/02/2012 17:30 4,6 C 54 % 1030,4 hPa 0,0 mm 8,6 km/h (2 Bft) N-NE 22 2 min 0 W/m -3,9 C 2,5 C 11,2 km/h (2 Bft)
20/02/2012 17:40 4,4 C 55 % 1030,4 hPa 0,0 mm 3,6 km/h (1 Bft) NE 45 2 min 0 W/m -3,8 C 4,4 C 6,5 km/h (2 Bft)
20/02/2012 17:50 4,3 C 56 % 1030,4 hPa 0,0 mm 5,4 km/h (2 Bft) NE 45 2 min 0 W/m -3,7 C 3,1 C 5,4 km/h (2 Bft)
20/02/2012 18:00 4,0 C 57 % 1030,4 hPa 0,0 mm 3,6 km/h (1 Bft) NE 45 2 min 0 W/m -3,7 C 4,0 C 4,0 km/h (1 Bft)
20/02/2012 18:10 3,6 C 57 % 1030,4 hPa 0,0 mm 4,0 km/h (1 Bft) N-NE 22 2 min 0 W/m -4,1 C 3,6 C 6,8 km/h (2 Bft)
20/02/2012 18:20 3,3 C 58 % 1030,5 hPa 0,0 mm 1,1 km/h (1 Bft) N-NE 22 0 min 0 W/m -4,2 C 3,3 C 4,3 km/h (1 Bft)
20/02/2012 18:30 2,9 C 59 % 1030,5 hPa 0,0 mm 0,4 km/h (0 Bft) NE 45 0 min 0 W/m -4,3 C 2,9 C 3,2 km/h (1 Bft)
20/02/2012 18:40 2,6 C 60 % 1030,7 hPa 0,0 mm 0,0 km/h (0 Bft) NE 45 0 min 0 W/m -4,4 C 2,6 C 0,0 km/h (0 Bft)
20/02/2012 18:50 2,2 C 61 % 1030,7 hPa 0,0 mm 1,1 km/h (1 Bft) N-NE 22 0 min 0 W/m -4,5 C 2,2 C 3,2 km/h (1 Bft)
20/02/2012 19:00 1,8 C 62 % 1030,7 hPa 0,0 mm 2,9 km/h (1 Bft) N-NE 22 0 min 0 W/m -4,7 C 1,8 C 3,6 km/h (1 Bft)
20/02/2012 19:10 1,5 C 62 % 1030,8 hPa 0,0 mm 1,1 km/h (1 Bft) N-NE 22 0 min 0 W/m -5,0 C 1,5 C 3,6 km/h (1 Bft)
20/02/2012 19:20 1,4 C 63 % 1030,9 hPa 0,0 mm 0,0 km/h (0 Bft) NE 45 0 min 0 W/m -4,9 C 1,4 C 0,0 km/h (0 Bft)
20/02/2012 19:30 1,1 C 64 % 1030,9 hPa 0,0 mm 0,0 km/h (0 Bft) N-NE 22 0 min 0 W/m -4,9 C 1,1 C 0,0 km/h (0 Bft)
20/02/2012 19:40 0,8 C 65 % 1030,9 hPa 0,0 mm 0,0 km/h (0 Bft) NE 45 0 min 0 W/m -5,0 C 0,8 C 0,0 km/h (0 Bft)
20/02/2012 19:50 0,6 C 66 % 1030,9 hPa 0,0 mm 0,4 km/h (0 Bft) NE 45 0 min 0 W/m -5,0 C 0,6 C 4,3 km/h (1 Bft)
20/02/2012 20:00 0,3 C 66 % 1030,9 hPa 0,0 mm 0,4 km/h (0 Bft) N-NE 22 0 min 0 W/m -5,3 C 0,3 C 3,2 km/h (1 Bft)
20/02/2012 20:10 0,2 C 67 % 1030,9 hPa 0,0 mm 0,4 km/h (0 Bft) N-NE 22 0 min 0 W/m -5,2 C 0,2 C 3,2 km/h (1 Bft)
20/02/2012 20:20 0,0 C 67 % 1030,9 hPa 0,0 mm 0,0 km/h (0 Bft) N-NE 22 0 min 0 W/m -5,4 C 0,0 C 3,6 km/h (1 Bft)
20/02/2012 20:30 -0,2 C 68 % 1031,0 hPa 0,0 mm 0,0 km/h (0 Bft) N 360 0 min 0 W/m -5,4 C -0,2 C 0,0 km/h (0 Bft)
20/02/2012 20:40 -0,2 C 69 % 1031,1 hPa 0,0 mm 1,4 km/h (1 Bft) N-NE 22 0 min 0 W/m -5,2 C -0,2 C 4,0 km/h (1 Bft)
20/02/2012 20:50 -0,4 C 70 % 1031,1 hPa 0,0 mm 1,1 km/h (1 Bft) NE 45 0 min 0 W/m -5,2 C -0,4 C 4,3 km/h (1 Bft)
20/02/2012 21:00 -0,6 C 70 % 1031,1 hPa 0,0 mm 0,7 km/h (0 Bft) N-NE 22 0 min 0 W/m -5,4 C -0,6 C 3,6 km/h (1 Bft)
20/02/2012 21:10 -0,7 C 71 % 1031,1 hPa 0,0 mm 2,9 km/h (1 Bft) N 360 0 min 0 W/m -5,3 C -0,7 C 2,9 km/h (1 Bft)
20/02/2012 21:20 -0,7 C 71 % 1031,2 hPa 0,0 mm 1,1 km/h (1 Bft) NE 45 0 min 0 W/m -5,3 C -0,7 C 6,1 km/h (2 Bft)
20/02/2012 21:30 -0,9 C 72 % 1031,1 hPa 0,0 mm 2,5 km/h (1 Bft) NE 45 0 min 0 W/m -5,3 C -0,9 C 6,8 km/h (2 Bft)
20/02/2012 21:40 -0,8 C 73 % 1031,2 hPa 0,0 mm 0,7 km/h (0 Bft) N-NE 22 0 min 0 W/m -5,0 C -0,8 C 4,3 km/h (1 Bft)
20/02/2012 21:50 -0,8 C 73 % 1031,2 hPa 0,0 mm 0,7 km/h (0 Bft) NE 45 0 min 0 W/m -5,0 C -0,8 C 3,2 km/h (1 Bft)
20/02/2012 22:00 -0,9 C 73 % 1031,2 hPa 0,0 mm 0,0 km/h (0 Bft) NE 45 0 min 0 W/m -5,1 C -0,9 C 0,0 km/h (0 Bft)
20/02/2012 22:10 -1,1 C 73 % 1031,1 hPa 0,0 mm 0,0 km/h (0 Bft) NE 45 0 min 0 W/m -5,3 C -1,1 C 0,0 km/h (0 Bft)
20/02/2012 22:20 -1,2 C 74 % 1031,1 hPa 0,0 mm 0,0 km/h (0 Bft) N-NE 22 0 min 0 W/m -5,2 C -1,2 C 0,0 km/h (0 Bft)
20/02/2012 22:30 -1,6 C 74 % 1031,2 hPa 0,0 mm 0,0 km/h (0 Bft) N-NE 22 0 min 0 W/m -5,6 C -1,6 C 0,0 km/h (0 Bft)
20/02/2012 22:40 -1,9 C 75 % 1031,1 hPa 0,0 mm 0,4 km/h (0 Bft) NE 45 0 min 0 W/m -5,7 C -1,9 C 2,9 km/h (1 Bft)
20/02/2012 22:50 -2,0 C 75 % 1031,1 hPa 0,0 mm 0,0 km/h (0 Bft) E-NE 67 0 min 0 W/m -5,8 C -2,0 C 0,0 km/h (0 Bft)
20/02/2012 23:00 -2,1 C 75 % 1031,0 hPa 0,0 mm 0,0 km/h (0 Bft) N 360 0 min 0 W/m -5,9 C -2,1 C 0,0 km/h (0 Bft)
20/02/2012 23:10 -2,2 C 76 % 1031,0 hPa 0,0 mm 0,0 km/h (0 Bft) NE 45 0 min 0 W/m -5,8 C -2,2 C 0,0 km/h (0 Bft)
20/02/2012 23:20 -2,5 C 76 % 1030,9 hPa 0,0 mm 0,0 km/h (0 Bft) N-NE 22 0 min 0 W/m -6,1 C -2,5 C 0,0 km/h (0 Bft)
20/02/2012 23:30 -2,7 C 76 % 1030,8 hPa 0,0 mm 0,0 km/h (0 Bft) NE 45 0 min 0 W/m -6,3 C -2,7 C 0,0 km/h (0 Bft)
20/02/2012 23:40 -3,1 C 77 % 1030,7 hPa 0,0 mm 0,0 km/h (0 Bft) N-NE 22 0 min 0 W/m -6,5 C -3,1 C 0,0 km/h (0 Bft)
20/02/2012 23:50 -3,2 C 78 % 1030,8 hPa 0,0 mm 0,0 km/h (0 Bft) NE 45 0 min 0 W/m -6,5 C -3,2 C 0,0 km/h (0 Bft)
_ Min-Heure 08:20 16:50 00:10 - 23:50 - - - - 08:10 08:20 23:50
Minimum _ -5,6 C 52 % 1029,3 hPa - 0,0 km/h (0 Bft) - - - - -7,0 C -5,6 C 0,0 km/h (0 Bft)
_ Max-Heure 13:00 09:20 11:50 23:50 14:50 - - 18:10 23:50 10:40 14:10 12:20
Maximum _ 6,6 C 92 % 1033,0 hPa 0,0 mm 15,5 km/h
N (3 Bft)
- - 2 min 0 W/m 0,7 C 6,2 C 18,0 km/h
NE (3 Bft)
Moyenne _ 0,3 C 73 % 1031,0 hPa #0,0 mm 2,4 km/h (1 Bft) N-NE - #2:02 h 0 W/m -4,2 C -0,1 C 3,7 km/h (1 Bft)
Saint Bonnet de Bellac- Haute Vienne - France